User: anonymous   Login
Location: Montr�al
(45.5000°N, 73.5830°W)
Time: 22:09:28
(UTC-05:00)
Language:

Cosmos 1470 Rocket - Orbit

View from above orbital plane
View from above orbital plane
View from above satellite
View from above satellite

Ground track
Ground track

The orbit data is extracted from the following two-line orbital elements,

1 14148U 83061B   15061.41057987  .00000581  00000-0  68501-4 0  9998
2 14148 082.5219 334.1239 0020802 210.2897 285.7713 14.82930590710667
Epoch (UTC): 02 March 2015 09:51:14
Eccentricity: 0.0020802
inclination: 82.5219°
perigee height: 605 km
apogee height: 634 km
right ascension of ascending node: 334.1239°
argument of perigee: 210.2897°
revolutions per day: 14.82930590
mean anomaly at epoch: 285.7713°
orbit number at epoch: 71066

The dashed part of the orbit path shows where the satellite is in the earth's shadow,  

DLR